IRIDIUM 151

Last updated on Fri Sep 11 2026 00:03:06 GMT+0000 (Coordinated Universal Time)

1 43074U 17083E 26253.48480472 .00000005 00000+0 -51889-5 0 9993 2 43074 86.3923 286.4023 0002066 91.3128 268.8304 14.34217593456368
UTC large
Height (km)
Speed (km/s)
/
Latitude / Longitude
Inclination (degrees)
Orbital Period (minutes)
Azimuth
Elevation
Range (km)
Doppler Factor

Next 0 passes for location: London (51.5072 / 0.1276)

No passes found over London.
IRIDIUM 151